When you browse on this site, cookies collect data to enhance your experience and personalize the content and advertising you see.
Visit our Privacy Policy to learn more. By continuing to use the site, you agree to this use of cookies and data.

Hourly Weather Somovka

Today, 7 July, Tuesday

Time Temperature Precipitation Wind Pressure Humidity
00:00 +20°C° 0 mm 2 mps 739 mmHg 88%
01:00 +19°C° 0 mm 2 mps 739 mmHg 90%
02:00 +19°C° 0 mm 2 mps 739 mmHg 93%
03:00 +20°C° 0 mm 2 mps 738 mmHg 93%
04:00 +20°C° 0 mm 3 mps 738 mmHg 94%
05:00 +21°C° 0 mm 3 mps 738 mmHg 94%
06:00 +24°C° 0.1 mm 3 mps 738 mmHg 90%
07:00 +25°C° 0.1 mm 3 mps 738 mmHg 87%
08:00 +27°C° 0 mm 3 mps 738 mmHg 83%
09:00 +28°C° 0.9 mm 3 mps 738 mmHg 77%
10:00 +30°C° 0.9 mm 3 mps 738 mmHg 71%
11:00 +31°C° 0.9 mm 3 mps 737 mmHg 65%
12:00 +32°C° 0.1 mm 4 mps 737 mmHg 66%
13:00 +32°C° 0.1 mm 4 mps 737 mmHg 67%
14:00 +32°C° 0 mm 4 mps 736 mmHg 70%
15:00 +30°C° 0.3 mm 4 mps 736 mmHg 73%
16:00 +30°C° 0.3 mm 4 mps 735 mmHg 77%
17:00 +30°C° 0.3 mm 4 mps 735 mmHg 80%
18:00 +28°C° 0.2 mm 3 mps 735 mmHg 81%
19:00 +27°C° 0.2 mm 3 mps 735 mmHg 81%
20:00 +26°C° 0.2 mm 3 mps 735 mmHg 82%
21:00 +24°C° 0.6 mm 3 mps 734 mmHg 85%
22:00 +21°C° 0.6 mm 4 mps 734 mmHg 89%
23:00 +20°C° 0.6 mm 4 mps 734 mmHg 92%

Tomorrow, 8 July, Wednesday

Time Temperature Precipitation Wind Pressure Humidity
00:00 +20°C° 0.4 mm 3 mps 734 mmHg 93%
01:00 +19°C° 0.4 mm 3 mps 734 mmHg 93%
02:00 +19°C° 0.4 mm 2 mps 734 mmHg 93%
03:00 +20°C° 0.3 mm 2 mps 734 mmHg 92%
04:00 +20°C° 0.3 mm 2 mps 734 mmHg 90%
05:00 +20°C° 0.3 mm 2 mps 734 mmHg 89%
06:00 +21°C° 0.4 mm 2 mps 734 mmHg 89%
07:00 +21°C° 0.4 mm 2 mps 734 mmHg 89%
08:00 +21°C° 0.4 mm 2 mps 735 mmHg 89%
09:00 +22°C° 0.2 mm 3 mps 735 mmHg 88%
10:00 +22°C° 0.2 mm 3 mps 735 mmHg 87%
11:00 +24°C° 0.2 mm 3 mps 736 mmHg 86%
12:00 +22°C° 0.4 mm 4 mps 736 mmHg 88%
13:00 +21°C° 0.4 mm 4 mps 736 mmHg 90%
14:00 +20°C° 0.4 mm 5 mps 736 mmHg 92%
15:00 +19°C° 1.5 mm 5 mps 737 mmHg 93%
16:00 +17°C° 1.5 mm 5 mps 737 mmHg 95%
17:00 +17°C° 1.5 mm 4 mps 737 mmHg 96%
18:00 +17°C° 1.5 mm 4 mps 737 mmHg 96%
19:00 +16°C° 1.5 mm 5 mps 738 mmHg 96%
20:00 +15°C° 1.5 mm 5 mps 738 mmHg 96%
21:00 +15°C° 0 mm 5 mps 738 mmHg 96%
22:00 +15°C° 0 mm 5 mps 738 mmHg 95%
23:00 +15°C° 0 mm 5 mps 739 mmHg 94%

Day after tomorrow, 9 July, Thursday

Time Temperature Precipitation Wind Pressure Humidity
00:00 +14°C° 0 mm 5 mps 739 mmHg 95%
01:00 +13°C° 0 mm 5 mps 739 mmHg 95%
02:00 +13°C° 0 mm 5 mps 739 mmHg 95%
03:00 +13°C° 0 mm 5 mps 739 mmHg 94%
04:00 +13°C° 0 mm 5 mps 739 mmHg 94%
05:00 +12°C° 0 mm 5 mps 739 mmHg 93%
06:00 +14°C° 0 mm 5 mps 740 mmHg 89%
07:00 +15°C° 0 mm 5 mps 740 mmHg 85%
08:00 +16°C° 0 mm 5 mps 740 mmHg 82%
09:00 +17°C° 0 mm 5 mps 740 mmHg 78%
10:00 +19°C° 0 mm 5 mps 741 mmHg 75%
11:00 +20°C° 0 mm 5 mps 741 mmHg 71%
12:00 +21°C° 0.1 mm 5 mps 741 mmHg 70%
13:00 +21°C° 0.1 mm 4 mps 741 mmHg 68%
14:00 +22°C° 0.1 mm 4 mps 741 mmHg 67%
15:00 +21°C° 0.1 mm 4 mps 741 mmHg 69%
16:00 +21°C° 0.1 mm 4 mps 741 mmHg 72%
17:00 +21°C° 0.1 mm 4 mps 741 mmHg 74%
18:00 +19°C° 0 mm 3 mps 741 mmHg 79%
19:00 +17°C° 0 mm 3 mps 742 mmHg 84%
20:00 +16°C° 0 mm 3 mps 742 mmHg 89%
21:00 +14°C° 0 mm 3 mps 742 mmHg 90%
22:00 +13°C° 0 mm 3 mps 742 mmHg 92%
23:00 +13°C° 0 mm 3 mps 743 mmHg 93%

10 July, Friday

Time Temperature Precipitation Wind Pressure Humidity
00:00 +12°C° 0 mm 3 mps 743 mmHg 93%
01:00 +12°C° 0 mm 3 mps 743 mmHg 94%
02:00 +11°C° 0 mm 3 mps 743 mmHg 94%
03:00 +11°C° 0 mm 3 mps 744 mmHg 93%
04:00 +12°C° 0 mm 3 mps 744 mmHg 92%
05:00 +12°C° 0 mm 3 mps 744 mmHg 90%
06:00 +13°C° 0 mm 3 mps 744 mmHg 86%
07:00 +16°C° 0 mm 3 mps 745 mmHg 81%
08:00 +17°C° 0 mm 3 mps 745 mmHg 77%
09:00 +18°C° 0 mm 3 mps 745 mmHg 73%
10:00 +19°C° 0 mm 3 mps 746 mmHg 69%
11:00 +20°C° 0 mm 4 mps 746 mmHg 65%
12:00 +21°C° 0 mm 3 mps 746 mmHg 63%
13:00 +21°C° 0 mm 3 mps 746 mmHg 62%
14:00 +21°C° 0 mm 3 mps 746 mmHg 60%
15:00 +21°C° 0 mm 3 mps 746 mmHg 62%
16:00 +21°C° 0 mm 2 mps 746 mmHg 64%
17:00 +21°C° 0 mm 2 mps 746 mmHg 66%
18:00 +21°C° 0 mm 1 mps 747 mmHg 70%
19:00 +19°C° 0 mm 1 mps 747 mmHg 75%
20:00 +16°C° 0 mm 1 mps 747 mmHg 80%
21:00 +16°C° 0 mm 1 mps 747 mmHg 82%
22:00 +15°C° 0 mm 1 mps 748 mmHg 84%
23:00 +14°C° 0 mm 1 mps 748 mmHg 86%

11 July, Saturday

Time Temperature Precipitation Wind Pressure Humidity
00:00 +14°C° 0 mm 1 mps 748 mmHg 87%
01:00 +14°C° 0 mm 1 mps 748 mmHg 87%
02:00 +14°C° 0 mm 1 mps 748 mmHg 88%
03:00 +14°C° 0 mm 1 mps 748 mmHg 87%
04:00 +14°C° 0 mm 0 mps 749 mmHg 86%
05:00 +15°C° 0 mm 0 mps 749 mmHg 85%
06:00 +18°C° 0 mm 1 mps 749 mmHg 81%
07:00 +20°C° 0 mm 1 mps 749 mmHg 76%
08:00 +21°C° 0 mm 1 mps 749 mmHg 72%
09:00 +21°C° 0 mm 2 mps 749 mmHg 68%
10:00 +23°C° 0 mm 2 mps 749 mmHg 65%
11:00 +24°C° 0 mm 3 mps 749 mmHg 62%
12:00 +24°C° 0 mm 3 mps 749 mmHg 61%
13:00 +25°C° 0 mm 3 mps 749 mmHg 61%
14:00 +25°C° 0 mm 3 mps 749 mmHg 61%
15:00 +25°C° 0 mm 3 mps 748 mmHg 64%
16:00 +25°C° 0 mm 2 mps 748 mmHg 66%
17:00 +24°C° 0 mm 2 mps 748 mmHg 69%
18:00 +23°C° 0 mm 2 mps 748 mmHg 72%
19:00 +20°C° 0 mm 2 mps 748 mmHg 75%
20:00 +19°C° 0 mm 1 mps 748 mmHg 78%
21:00 +18°C° 0 mm 2 mps 748 mmHg 79%
22:00 +17°C° 0 mm 2 mps 748 mmHg 79%
23:00 +17°C° 0 mm 2 mps 748 mmHg 80%

12 July, Sunday

Time Temperature Precipitation Wind Pressure Humidity
00:00 +16°C° 0 mm 2 mps 748 mmHg 81%
01:00 +16°C° 0 mm 2 mps 748 mmHg 82%
02:00 +15°C° 0 mm 2 mps 747 mmHg 82%
03:00 +16°C° 0 mm 2 mps 747 mmHg 83%
04:00 +16°C° 0 mm 2 mps 747 mmHg 84%
05:00 +16°C° 0 mm 2 mps 747 mmHg 84%
06:00 +18°C° 0 mm 2 mps 747 mmHg 81%
07:00 +19°C° 0 mm 2 mps 747 mmHg 77%
08:00 +21°C° 0 mm 3 mps 747 mmHg 74%
09:00 +22°C° 0 mm 3 mps 747 mmHg 70%
10:00 +24°C° 0 mm 3 mps 747 mmHg 66%
11:00 +25°C° 0 mm 3 mps 747 mmHg 63%
12:00 +25°C° 0 mm 3 mps 746 mmHg 62%
13:00 +26°C° 0 mm 3 mps 746 mmHg 60%
14:00 +26°C° 0 mm 3 mps 746 mmHg 59%
15:00 +26°C° 0 mm 2 mps 745 mmHg 62%
16:00 +26°C° 0 mm 2 mps 745 mmHg 65%
17:00 +26°C° 0 mm 2 mps 745 mmHg 67%
18:00 +24°C° 0 mm 2 mps 745 mmHg 71%
19:00 +21°C° 0 mm 2 mps 745 mmHg 75%
20:00 +19°C° 0 mm 2 mps 744 mmHg 79%
21:00 +19°C° 0 mm 2 mps 744 mmHg 80%
22:00 +18°C° 0 mm 2 mps 744 mmHg 81%
23:00 +17°C° 0 mm 2 mps 744 mmHg 82%
Show more